Location: Newark
(25.4800°N, 85.7200°E)
Time: 07:36:36
(UTC+00:00)

Vanguard 2 - Visible Passes

Search period start: 25 August 2019 00:00
Search period end: 04 September 2019 00:00
Orbit: 554 x 2938 km, 32.9° (Epoch: 24 August)

Date Brightness Start Highest point End Pass type
(mag) Time Alt. Az. Time Alt. Az. Time Alt. Az.
25 Aug 10.7 12:42:22 10° WNW 12:54:17 51° SSW 13:10:49 10° SE visible
25 Aug 11.6 14:56:34 10° WSW 15:06:35 20° SW 15:17:38 10° S visible
26 Aug 11.0 13:00:58 10° W 13:12:31 40° SSW 13:28:00 10° SSE visible
26 Aug 11.8 15:18:47 10° WSW 15:25:00 13° SW 15:31:31 10° SSW visible
27 Aug 11.2 13:19:56 10° W 13:30:48 30° SW 13:44:43 10° SSE visible
28 Aug 11.5 13:39:35 10° WSW 13:49:10 22° SW 14:00:48 10° S visible
29 Aug 11.8 14:00:32 10° WSW 14:07:38 15° SW 14:15:41 10° S visible
01 Sep 11.7 12:44:07 10° WSW 12:50:38 16° SSW 12:58:30 10° S visible
